Location: Bogis-Bossey
(46.3500°N, 6.1667°E)
Time: 17:50:01
(UTC+00:00)

H-2A R/B - Pass Details

Date: 17 August 2022
Orbit: 575 x 653 km, 98.5° (Epoch: 01 October)

Event Time Altitude Azimuth Distance (km) Brightness Sun altitude
Rises 21:17:45 0° 2° (N) 2,915 6.3 -22.5°
Reaches altitude 10° 21:20:19 10° 348° (NNW) 1,989 5.5 -22.8°
Maximum altitude 21:23:42 23° 297° (WNW) 1,311 4.4 -23.1°
Drops below altitude 10° 21:27:00 10° 245° (WSW) 1,939 4.7 -23.4°
Sets 21:29:28 0° 230° (SW) 2,823 5.4 -23.7°
Enters shadow 21:29:35 - 230° (SW) 2,868 5.4 -23.7°
